Waarnemingen

Advertentie
Mijn weer
Orense, Spanje (8048): temperatuur & dauwpunt: 18.10.2018 00:00:00 - 24.10.2018 00:00:00 (CEST)Orense, Spanje (8048): windsnelheid: 18.10.2018 00:00:00 - 24.10.2018 00:00:00 (CEST)Orense, Spanje (8048): windrichting: 18.10.2018 00:00:00 - 24.10.2018 00:00:00 (CEST)Orense, Spanje (8048): luchtdruk: 18.10.2018 00:00:00 - 24.10.2018 00:00:00 (CEST)Orense, Spanje (8048): zicht: 18.10.2018 00:00:00 - 24.10.2018 00:00:00 (CEST)Orense, Spanje (8048): neerslag: 18.10.2018 00:00:00 - 24.10.2018 00:00:00 (CEST)
Datum & Tijd tt [°C] td [°C] ff [km/u] ff [kn] dd ppp [hPa] vv [km] rr [mm]
24.10.2018 00:00:00 13,0 10,2 4 2 ZZO 1027,7 20 0,0
23.10.2018 23:00:00 14,4 10,8 2 1 W 1027,2 20 -
23.10.2018 22:00:00 16,3 11,4 2 1 O 1026,3 20 0,0
23.10.2018 21:00:00 18,8 12,1 2 1 NO - 20 0,0
23.10.2018 20:00:00 21,2 12,1 4 2 WNW 1024,8 20 -
23.10.2018 19:00:00 24,3 11,3 4 2 NO 1023,9 20 0,0
23.10.2018 18:00:00 25,3 8,7 5 3 NO 1023,9 20 0,0
23.10.2018 17:00:00 25,1 8,6 2 1 NO 1023,7 20 -
23.10.2018 16:00:00 24,0 8,4 2 1 N 1023,9 20 0,0
23.10.2018 15:00:00 22,5 7,1 4 2 N 1024,7 20 0,0
23.10.2018 14:00:00 20,8 8,4 4 2 N 1025,8 20 -
23.10.2018 13:00:00 17,5 9,6 4 2 W 1026,6 20 0,0
23.10.2018 12:00:00 13,9 8,9 4 2 Z 1027,6 20 0,0
23.10.2018 11:00:00 10,3 8,2 4 2 ZZW 1028,2 18 -
23.10.2018 10:00:00 7,1 6,2 2 1 WZW 1028,0 12 0,0
23.10.2018 09:00:00 6,9 5,7 2 1 ZZW 1027,2 11 0,0
23.10.2018 08:00:00 7,3 5,9 4 2 Z - 14 -
23.10.2018 07:00:00 7,6 6,2 2 1 ZZO 1026,6 13 0,0
23.10.2018 06:00:00 8,2 6,7 2 1 OZO 1026,4 14 0,0
23.10.2018 05:00:00 8,9 7,2 2 1 ZZW 1025,9 17 -
23.10.2018 04:00:00 9,7 7,3 4 2 Z 1025,9 17 0,0
23.10.2018 03:00:00 10,8 8,0 2 1 ZW 1026,1 20 0,0
23.10.2018 02:00:00 12,3 8,6 2 1 WZW 1025,8 20 -
23.10.2018 01:00:00 14,8 9,2 4 2 O 1025,3 20 0,0
23.10.2018 00:00:00 15,8 9,7 4 2 N 1025,0 20 0,0
22.10.2018 23:00:00 16,7 9,1 2 1 ZZW 1024,4 20 -
22.10.2018 22:00:00 17,8 8,9 2 1 NO 1023,8 20 0,0
22.10.2018 21:00:00 18,8 9,0 4 2 ZZW 1023,4 20 0,0
22.10.2018 20:00:00 20,9 8,5 4 2 W 1022,5 20 -
22.10.2018 19:00:00 23,7 9,7 4 2 W 1022,0 20 0,0
22.10.2018 18:00:00 25,2 9,5 4 2 NNO 1021,5 20 0,0
22.10.2018 17:00:00 25,0 11,2 4 2 NO 1021,7 20 -
22.10.2018 16:00:00 24,1 12,4 4 2 NO 1022,0 19 0,0
22.10.2018 15:00:00 22,6 13,1 5 3 NNO 1023,0 20 0,0
22.10.2018 14:00:00 20,4 12,4 5 3 N 1023,7 20 -
22.10.2018 13:00:00 18,5 12,5 4 2 N 1024,6 19 0,0
22.10.2018 12:00:00 16,8 12,5 4 2 NNO 1024,8 19 0,0
22.10.2018 11:00:00 15,6 13,1 2 1 W 1024,8 14 -
22.10.2018 10:00:00 14,5 12,9 0 0 N 1024,4 11 0,0
22.10.2018 09:00:00 14,0 12,6 0 0 N 1023,7 10 0,0
22.10.2018 08:00:00 13,7 12,4 0 0 N 1023,4 7 -
22.10.2018 07:00:00 13,6 12,2 2 1 O 1023,1 7 0,0
22.10.2018 06:00:00 13,7 11,9 2 1 ZW 1022,5 11 0,0
22.10.2018 05:00:00 14,6 12,3 2 1 ZW 1022,4 11 -
22.10.2018 04:00:00 15,2 13,0 4 2 N 1022,2 12 0,0
22.10.2018 03:00:00 14,4 12,8 4 2 OZO 1022,0 11 0,0
22.10.2018 02:00:00 15,0 13,0 2 1 Z 1021,8 10 -
22.10.2018 01:00:00 15,5 13,3 2 1 ZW 1021,5 12 0,0
22.10.2018 00:00:00 16,4 13,9 4 2 OZO 1021,0 18 0,0
21.10.2018 23:00:00 17,0 14,3 2 1 Z 1020,5 19 -
21.10.2018 22:00:00 18,4 14,5 0 0 N 1019,8 20 0,0
21.10.2018 21:00:00 19,9 14,9 4 2 W 1019,3 20 0,0
21.10.2018 20:00:00 22,6 14,9 4 2 O 1018,4 20 -
21.10.2018 19:00:00 24,7 13,9 4 2 NO 1017,5 20 0,0
21.10.2018 18:00:00 25,3 13,8 4 2 NNO 1017,3 20 0,0
21.10.2018 17:00:00 26,4 13,5 4 2 NNO 1017,7 20 -
21.10.2018 16:00:00 25,1 13,6 4 2 N 1018,1 20 0,0
21.10.2018 15:00:00 22,7 14,3 4 2 ZZW 1018,7 20 0,0
21.10.2018 14:00:00 19,1 13,1 4 2 W 1019,9 20 -
21.10.2018 13:00:00 16,3 12,6 4 2 ZW 1020,7 15 0,0
21.10.2018 12:00:00 14,2 11,7 2 1 Z 1021,4 13 0,0
21.10.2018 11:00:00 12,7 11,4 2 1 ZZO 1021,8 11 -
21.10.2018 10:00:00 10,8 9,9 2 1 WZW 1021,9 7 0,0
21.10.2018 09:00:00 10,5 9,4 2 1 ZZO 1021,4 - 0,0
21.10.2018 08:00:00 10,9 9,8 2 1 ZZW 1020,9 7 -
21.10.2018 07:00:00 11,3 10,0 2 1 OZO 1020,9 7 0,0
21.10.2018 06:00:00 11,6 10,3 2 1 Z 1020,5 - 0,0
21.10.2018 05:00:00 12,2 10,4 2 1 ZW 1020,7 6 -
21.10.2018 04:00:00 12,9 11,0 2 1 W 1020,7 10 0,0
21.10.2018 03:00:00 13,7 11,4 2 1 OZO 1020,7 11 0,0
21.10.2018 02:00:00 14,7 11,7 2 1 Z 1020,6 11 -
21.10.2018 01:00:00 16,5 12,5 4 2 NO 1020,3 14 0,0
21.10.2018 00:00:00 17,1 12,6 4 2 ONO 1020,4 15 0,0
20.10.2018 23:00:00 18,0 12,7 4 2 NNO 1019,3 18 -
20.10.2018 22:00:00 19,0 13,0 5 3 NNO 1018,4 20 0,0
20.10.2018 21:00:00 20,1 13,1 2 1 ZW 1018,3 20 0,0
20.10.2018 20:00:00 22,3 12,5 2 1 N 1017,3 20 -
20.10.2018 19:00:00 24,4 12,0 5 3 NO 1016,7 20 0,0
20.10.2018 18:00:00 25,7 12,9 4 2 NNO 1016,9 20 0,0
20.10.2018 17:00:00 25,7 12,2 4 2 N 1016,8 20 -
20.10.2018 16:00:00 25,0 11,9 4 2 N 1017,5 20 0,0
20.10.2018 15:00:00 23,4 11,8 5 3 N 1018,6 20 0,0
20.10.2018 14:00:00 22,2 11,3 5 3 NNW 1019,6 20 -
20.10.2018 13:00:00 20,4 10,8 5 3 NNO 1020,3 20 0,0
20.10.2018 12:00:00 17,1 11,8 4 2 ZZW 1020,8 16 0,0
20.10.2018 11:00:00 13,9 11,1 2 1 ZZO 1021,3 12 -
20.10.2018 10:00:00 10,9 9,5 2 1 ZO 1021,3 8 0,0
20.10.2018 09:00:00 11,0 9,1 2 1 ZZO 1020,5 8 0,0
20.10.2018 08:00:00 12,1 9,8 4 2 OZO 1019,7 10 -
20.10.2018 07:00:00 13,5 10,7 4 2 O 1019,4 12 0,0
20.10.2018 06:00:00 14,6 11,2 2 1 NO 1019,1 15 0,0
20.10.2018 05:00:00 15,0 11,2 4 2 NNO 1019,1 15 -
20.10.2018 04:00:00 15,5 11,5 4 2 N 1019,3 18 0,0
20.10.2018 03:00:00 15,8 11,6 4 2 NO 1019,3 19 0,0
20.10.2018 02:00:00 16,2 11,8 8 4 NO 1018,9 19 -
20.10.2018 01:00:00 16,6 12,1 4 2 NNO 1018,4 19 0,0
20.10.2018 00:00:00 17,0 12,5 2 1 NNW 1018,7 18 0,0
19.10.2018 23:00:00 17,6 12,7 4 2 N 1018,2 19 -
19.10.2018 22:00:00 18,2 12,9 5 3 NNO 1017,6 20 0,0
19.10.2018 21:00:00 19,1 13,1 4 2 N 1016,9 20 0,0
19.10.2018 20:00:00 20,1 13,3 4 2 NO 1016,1 20 -
19.10.2018 19:00:00 22,9 13,7 4 2 N 1015,3 20 0,0
19.10.2018 18:00:00 24,7 13,9 5 3 N 1014,3 20 0,0
19.10.2018 17:00:00 25,3 13,5 4 2 N 1014,0 20 -
19.10.2018 16:00:00 24,5 13,1 5 3 N 1014,3 20 0,0
19.10.2018 15:00:00 23,5 12,5 5 3 NNO 1014,7 20 0,0
19.10.2018 14:00:00 21,9 12,4 5 3 N 1015,6 20 -
19.10.2018 13:00:00 20,4 12,4 5 3 NNO 1016,7 20 0,0
19.10.2018 12:00:00 17,8 12,0 5 3 NNW 1017,2 20 0,0
19.10.2018 11:00:00 13,9 11,9 4 2 Z 1017,4 19 -
19.10.2018 10:00:00 10,9 10,1 2 1 O 1017,3 12 0,0
19.10.2018 09:00:00 10,8 9,9 4 2 ZO 1016,3 10 0,0
19.10.2018 08:00:00 11,2 10,3 2 1 OZO 1016,1 10 -
19.10.2018 07:00:00 11,5 10,2 2 1 WZW 1016,1 9 0,0
19.10.2018 06:00:00 12,1 11,0 2 1 NO 1016,4 16 0,0
19.10.2018 05:00:00 12,0 10,9 2 1 OZO 1016,5 17 -
19.10.2018 04:00:00 11,6 10,3 2 1 ONO 1017,0 15 0,0
19.10.2018 03:00:00 11,9 10,5 2 1 O 1017,0 14 0,0
19.10.2018 02:00:00 12,6 10,8 4 2 W 1017,0 15 -
19.10.2018 01:00:00 13,6 11,3 2 1 W 1016,8 19 0,0
19.10.2018 00:00:00 15,0 11,9 2 1 NO 1016,3 20 0,0
18.10.2018 23:00:00 15,5 11,9 4 2 ZZW 1016,0 20 -
18.10.2018 22:00:00 16,5 12,3 4 2 O 1015,2 20 0,0
18.10.2018 21:00:00 18,0 12,2 5 3 NW 1014,4 20 0,0
18.10.2018 20:00:00 19,3 12,3 4 2 W 1013,3 20 -
18.10.2018 19:00:00 21,5 12,6 5 3 NNO 1012,7 20 0,0
18.10.2018 18:00:00 22,6 11,9 5 3 N 1012,6 20 0,0
18.10.2018 17:00:00 21,6 12,4 4 2 NNO 1012,6 20 -
18.10.2018 16:00:00 22,9 13,1 5 3 N 1012,6 20 0,0
18.10.2018 15:00:00 21,2 12,9 4 2 N 1013,2 20 0,0
18.10.2018 14:00:00 20,5 13,0 5 3 NO 1013,7 20 -
18.10.2018 13:00:00 19,3 13,2 8 4 ONO 1014,1 20 0,0
18.10.2018 12:00:00 17,0 13,9 4 2 NNO 1014,5 20 0,0
18.10.2018 11:00:00 13,7 12,9 2 1 N 1014,7 13 -
18.10.2018 10:00:00 12,3 11,8 4 2 ONO 1014,3 8 0,0
18.10.2018 09:00:00 11,9 11,4 2 1 ZZO 1013,9 3,0 0,0
18.10.2018 08:00:00 12,3 11,5 2 1 ZZW 1013,3 3,6 -
18.10.2018 07:00:00 12,4 11,5 2 1 NW 1012,9 7 0,2
18.10.2018 06:00:00 13,2 12,4 2 1 N 1012,5 14 0,0
18.10.2018 05:00:00 13,6 12,7 2 1 NNW 1012,6 19 -
18.10.2018 04:00:00 13,8 12,5 4 2 W 1012,7 9 0,8
18.10.2018 03:00:00 13,7 12,8 2 1 NNW 1012,8 17 0,2
18.10.2018 02:00:00 13,8 12,9 2 1 Z 1012,6 8 -
18.10.2018 01:00:00 14,1 13,1 2 1 NNW 1013,1 10 1,0
18.10.2018 00:00:00 14,4 13,3 2 1 NNW 1013,5 3,2 0,6

tt = temperatuur
td = dauwpunt
ff = windsnelheid
dd = windrichting
ppp = luchtdruk
vv = zicht
rr = neerslag

Weerstations in de omgeving